User: anonymous   Login
Location: Unspecified
(0.0000°N, 0.0000°E)
Time: 06:18:35
(UTC+00:00)
Language:

M-CUBED/EXP-1 PRIME - Orbit

View from above orbital plane
View from above orbital plane
View from above satellite
View from above satellite

Ground track
Ground track

The orbit data is extracted from the following two-line orbital elements,

1 37855U 11061F   18175.45667655 +.00002131 +00000-0 +11565-3 0  9991
2 37855 101.7155 241.7081 0176478 060.7774 301.0958 15.04484028362279
Epoch (UTC): 24 June 2018 10:57:36
Eccentricity: 0.0176478
inclination: 101.7155°
perigee height: 431 km
apogee height: 675 km
right ascension of ascending node: 241.7081°
argument of perigee: 60.7774°
revolutions per day: 15.04484028
mean anomaly at epoch: 301.0958°
orbit number at epoch: 36227

The dashed part of the orbit path shows where the satellite is in the earth's shadow,  

DLR